STARLINK-11707 [DTC] (64328 NORAD) Tracking and Keplerian Element Data

This shows tracking and keplerian element data for the satellite.

Feedback or suggestion? Click here.




ElementValue
Catalog64328
NameSTARLINK-11707 [DTC]
Epoch Orbit3022
Epoch Day353.50095861
Epoch Year2025
RAAN152.4862
Inclination42.9984
Eccentricity0.0003366
Argument of Perigee291.2477
Mean Anonmoly68.8031
Mean Motion15.70873013
Decay Rate0.00236028
L11 64328U 25124M 25353.50095861 .00236028 00000+0 17885-2 0 9990
L22 64328 42.9984 152.4862 0003366 291.2477 68.8031 15.70873013 30227



Live tracking and technical data element details for STARLINK-11707 [DTC] (NORAD 64328). STARLINK-11707 [DTC] can be tracked NOW for your location showing map with azimuth and elevation plus other details from your city location.







IsCatalogInMostPopularTable: catalog: 64328, numindb: 3
Update: records affected: 1



GetName: 64328 STARLINK-11707 [DTC]

Hit Count: updated at: Mon, 09 Feb 2026 09:07:00 GMT